Regional Weather Roundup
Issued by NWS Bismarck, ND

Home | Current Version | Previous Version | Text Only | Print | Product List | Glossary On
Versions: 1 2 3 4 5 6 7 8 9 10 11 12 13 14 15 16 17 18 19 20 21 22 23 24 25 26 27 28 29 30 31 32 33 34 35 36 37 38 39 40 41 42 43 44 45 46 47 48 49 50
000
ASUS43 KBIS 272202
RWRBIS

NWR BROADCAST TEXT
NATIONAL WEATHER SERVICE BISMARCK ND
500 PM CDT WED MAY 27 2015

NOTE: "FAIR" INDICATES FEW OR NO CLOUDS BELOW 12,000 FEET WITH NO
SIGNIFICANT WEATHER AND/OR OBSTRUCTIONS TO VISIBILITY.


CITY           SKY/WX    TMP DP  RH WIND       PRES   REMARKS
WILLISTON      RAIN      60  56  86 CALM      29.98R FOG
MINOT          CLOUDY    77  49  37 E12       29.92F
MINOT AFB      CLOUDY    76  50  39 E14       29.91F
BISMARCK       PTSUNNY   80  45  28 S16       29.92F
DICKINSON      LGT RAIN  69  52  54 SW16G26   29.89R
GARRISON         N/A     81  45  28 S10       29.90F
HETTINGER ARPT PTSUNNY   70  52  52 S20G26    29.90F
JAMESTOWN      PTSUNNY   80  49  33 MISG      29.94S
CARRINGTON     MOCLDY    75  50  41 E14       29.94S
HAZEN          FAIR      77  45  31 S16G23    29.90F
OAKES            N/A     81  52  36 SW6       29.94F
STANLEY        FAIR      72  52  49 VRB6      29.93S
$$

CITY           SKY/WX    TMP DP  RH WIND       PRES   REMARKS
GRAND FORKS    SUNNY     77  49  37 N6        29.95F
GRAND FORKS AF SUNNY     75  50  40 NE6       29.97F
DEVILS LAKE    MOSUNNY   75  50  41 E10G17    29.96S
FARGO          SUNNY     82  50  32 CALM      29.95F
CAVALIER       FAIR      72  45  37 NE9       29.98F
GRAFTON        FAIR      73  46  38 N8        29.98F
LANGDON        FAIR      72  46  40 E12       30.00F
ROLLA          FAIR      68  45  42 E12       30.00F
WALHALLA         N/A     72  43  35 MISG      29.99F
$$

CITY           SKY/WX    TMP DP  RH WIND       PRES   REMARKS
ABERDEEN       PTSUNNY   84  50  30 S5        29.95F
MOBRIDGE       MOSUNNY   83  47  28 S18       29.90F
BUFFALO          N/A     72  51  47 S13G22    29.83F
RAPID CITY     CLOUDY    69  55  60 SE7       29.92F
GLASGOW        PTSUNNY   69  51  52 S7        29.89S
SIDNEY         CLOUDY    63  55  77 CALM      29.92F
WOLF POINT     PTSUNNY   72  52  49 S8        29.90F
GLENDIVE       CLOUDY    63  55  77 NE9       29.91F
MILES CITY     MOSUNNY   66  56  70 E6        29.91S
BAKER          CLOUDY    62  57  83 N17       29.94F
$$

CITY           SKY/WX    TMP DP  RH WIND       PRES   REMARKS
BILLINGS       PTSUNNY   63  49  60 NE9       29.96F
GREAT FALLS    PTSUNNY   63  48  58 W5        29.98F
$$



USA.gov is the U.S. government's official web portal to all federal, state and local government web resources and services.